Altus AFB, OK

1:20 AM CST on November 19, 2019 (GMT -0600)
Altus Air Force Base

Weather History for KLTS - October, 2019

Change the Weather History Date:

Sunday, October 20, 2019

  Actual Average Record
Temperature  
Mean Temperature 66 °F -  
Max Temperature 89 °F 72 °F 95 °F (2007)
Min Temperature 44 °F 48 °F 33 °F (1999)
Cooling Degree Days 2    
Growing Degree Days 16 (Base 50)    
Moisture  
Dew Point 39 °F    
Average Humidity 46    
Maximum Humidity 81    
Minimum Humidity 17    
Precipitation  
Precipitation 0.00 in - - ()
Sea Level Pressure  
Sea Level Pressure 29.68 in    
Wind  
Wind Speed 7 mph ()    
Max Wind Speed 30 mph    
Max Gust Speed 37 mph    
Visibility 10.0 miles    
Events      
Averages and records for this station are not official NWS values.
T = Trace of Precipitation, MM = Missing Value Source: Averaged Metar Reports

Daily Weather History Graph

Daily Weather History Graph

Search for Another Location

Airport or City:

Astronomy

Oct. 20, 2019 Rise Set
Actual Time 7:46 AM CDT 6:56 PM CDT
Civil Twilight 7:21 AM CDT 7:22 PM CDT
Nautical Twilight 6:51 AM CDT 7:51 PM CDT
Astronomical Twilight 6:22 AM CDT 8:20 PM CDT
Moon No Moon Rise 2:06 PM CDT (10/20)
Length of Visible Light 12h 00m
Length of Day
11h 09m
Waning Gibbous, 59% of the Moon is Illuminated
Oct 20
Waning Gibbous
Oct 21
Last Quarter
Oct 27
New
Nov 4
First Quarter
Nov 12
Full

Hourly Weather History & Observations

Time (CDT) Temp. Windchill Dew Point Humidity Pressure Visibility Wind Dir Wind Speed Gust Speed Precip Events Conditions
12:56 AM 51.1 °F - 38.8 °F 63% 29.80 in 10.0 mi ESE 4.6 mph - N/A   Clear
1:56 AM 50.5 °F - 39.2 °F 65% 29.79 in 10.0 mi Calm Calm - N/A   Clear
2:56 AM 46.8 °F - 39.2 °F 75% 29.77 in 10.0 mi SE 3.5 mph - N/A   Clear
3:56 AM 47.7 °F - 40.1 °F 75% 29.76 in 10.0 mi Calm Calm - N/A   Clear
4:56 AM 44.2 °F 41.8 °F 38.8 °F 81% 29.74 in 10.0 mi SE 4.6 mph - N/A   Clear
5:56 AM 46.6 °F - 39.7 °F 77% 29.76 in 10.0 mi Calm Calm - N/A   Clear
6:56 AM 45.5 °F - 40.1 °F 81% 29.78 in 10.0 mi Calm Calm - N/A   Clear
7:56 AM 46.2 °F - 39.7 °F 78% 29.78 in 10.0 mi Calm Calm - N/A   Clear
8:56 AM 49.8 °F - 43.9 °F 80% 29.79 in 10.0 mi SSE 4.6 mph - N/A   Clear
9:56 AM 60.3 °F - 45.9 °F 59% 29.78 in 10.0 mi South 10.4 mph - N/A   Clear
10:56 AM 67.5 °F - 47.7 °F 49% 29.75 in 10.0 mi SSW 17.3 mph 21.9 mph N/A   Clear
11:56 AM 74.1 °F - 47.5 °F 39% 29.71 in 10.0 mi SSW 15.0 mph - N/A   Clear
12:56 PM 80.4 °F - 45.1 °F 29% 29.66 in 10.0 mi SSW 19.6 mph 25.3 mph N/A   Clear
1:56 PM 84.7 °F - 45.0 °F 25% 29.61 in 10.0 mi SW 19.6 mph 26.5 mph N/A   Clear
2:56 PM 84.9 °F - 44.1 °F 24% 29.56 in 10.0 mi SSW 18.4 mph - N/A   Clear
3:56 PM 88.0 °F - 43.2 °F 21% 29.54 in 10.0 mi SW 16.1 mph 24.2 mph N/A   Clear
4:56 PM 89.1 °F - 38.5 °F 17% 29.52 in 10.0 mi SW 13.8 mph 23.0 mph N/A   Clear
6:56 PM 82.6 °F - 33.3 °F 17% 29.52 in 10.0 mi West 6.9 mph - N/A   Clear
7:56 PM 79.7 °F - 32.4 °F 18% 29.52 in 10.0 mi West 6.9 mph - N/A   Partly Cloudy
8:55 PM 75.2 °F - 33.8 °F 22% 29.57 in 10.0 mi NNW 29.9 mph 36.8 mph N/A   Partly Cloudy
9:56 PM 66.6 °F - 26.6 °F 22% 29.63 in 10.0 mi North 21.9 mph 28.8 mph N/A   Partly Cloudy
10:56 PM 64.6 °F - 23.7 °F 21% 29.68 in 10.0 mi North 16.1 mph 29.9 mph N/A   Clear
11:56 PM 61.2 °F - 20.8 °F 21% 29.68 in 10.0 mi North 9.2 mph - N/A   Partly Cloudy